STARLINK-37667, 69045

Orbit data source: Space-Track

STARLINK-37667, 69045 is a payload satellite owned by SpaceX/Seattle (US) in SSO that was launched on Wed, 06 May 2026 UTC via an FALCON 9 launch vehicle from the Air Force Western Test Range (AFWTR). Payload-class satellites include a variety of spacecraft equipped with specific instruments for various scientific and technological missions. These include communications satellites like Starlink; space stations such as the ISS; scientific satellites like the Hubble; Earth observation satellites from companies like Planet Labs, Umbra, and HawkEye 360; GPS; miniature CubeSats for education and research; and military/defense satellites.

Loading next visibility...
Identifier
69045, 2026-101W
Orbit
SSO
Country
Flag of USUS
Related business
Manufacturer
SpaceX/Seattle
Mission
Operational spacecraft
Bus & Motor
STARLINK V2MO, Unknown motor
Mass
575 kg wet, ~530 kg dry
Launch date (UTC)
2026-05-06 (1 month ago)
Launch vehicle
FALCON 9
Launch site
Air Force Western Test Range (AFWTR)
Object type
Payload
Rocket body
Debris
Shape & HBR
Unknown
Radar Cross Section
Large (>1 m²)

Expand to show TLE details & history
Last TLE update: 1 week ago

TLE from 1 week ago
0 STARLINK-37667
1 69045U 26101W   26155.25004630 -.02459472  00000-0 -60863-1 0  9992
2 69045  97.2847  10.3056 0002185 100.8129 170.9557 15.44003710  5874
Epoch: 2026-06-04T06:00Z
TLE epoch observation values (Epoch: 2026-06-04T06:00:04.000Z)
Latitude
-82.54619°
Longitude
103.91773°
Altitude
464.175 km
Speed
7.632 km/s
True Right ascension
05h 46m 31s
True Declination
-82° 29' 60"
Sunlit
Object was in daylight at epoch
Visualization orbit readout
Latitude
Unknown
Longitude
Unknown
Altitude
Unknown
Speed
Unknown
Apparent Right ascension
Unknown
Apparent Declination
Unknown
Sunlit
N/A
Visualization observer readout
Local Sidereal Time
03:25:09
Azimuth
Unknown
Elevation
Unknown
Doppler factor
Unknown
Orbital elements
Apogee altitude
432.724 km
Perigee altitude
429.748 km
Semi-major axis
6,809.373 km
Eccentricity
0.00022
Inclination
97.2847°
RAAN
10.3056°
Arg. of periapsis
100.8129°
True anomaly
170.95963°
Mean anomaly
170.9557°
Eccentric anomaly
170.95767°
Mean motion
3.86262 °/min
Orbital period
93.2 mins
BSTAR
-0.060863
Loading maneuver chart data...
Computing Atmospheric mass density...
Loading historical data...
Loading historical data...
Loading historical data...
Loading historical data...
Loading historical data...
Loading historical data...
Loading historical data...

Documentation

Showing up to 5 results
|